Location: Bishop�s Knoyle
(51.0728°N, 2.1714°W)
Time: 04:33:45
(UTC+00:00)

SJ 16-02 - Pass Details

Date: 18 September 2020
Orbit: 606 x 616 km, 75.0° (Epoch: 20 October)

Event Time Altitude Azimuth Distance (km) Brightness Sun altitude
Rises 19:36:51 0° 231° (SW) 2,858 5.2 -13.4°
Reaches altitude 10° 19:39:18 10° 242° (WSW) 1,958 4.5 -13.7°
Maximum altitude 19:43:10 30° 304° (NW) 1,105 3.4 -14.3°
Drops below altitude 10° 19:47:03 10° 6° (N) 1,969 4.1 -14.9°
Sets 19:49:32 0° 17° (NNE) 2,878 4.9 -15.2°
